Regional Weather Roundup
Issued by NWS

Home | Current Version | Previous Version | Graphics & Text | Print | Product List | Glossary On
Versions: 1 2 3 4 5 6 7 8 9 10 11 12 13 14 15 16 17 18 19 20 21 22 23 24 25 26 27 28 29 30 31 32 33 34 35 36 37 38 39 40 41 42 43 44 45 46 47 48 49 50
000
ASUS44 KMEG 230800
RWRTN
TENNESSEE HOURLY STATE WEATHER ROUNDUP
NATIONAL WEATHER SERVICE MEMPHIS TN
300 AM CDT SAT MAY 23 2015

TNZ002-004-019-021-049-052-054-088>092-230900-
WEST TENNESSEE

CITY           SKY/WX    TMP DP  RH WIND       PRES   REMARKS
MEMPHIS INTL   CLOUDY    65  49  56 E5        30.22S
NWS MEMPHIS      N/A     59 N/A N/A MISG        N/A
JACKSON        CLOUDY    56  51  84 CALM      30.25R
DYERSBURG      CLOUDY    59  43  55 NE3       30.26R
PARIS          CLEAR     55  50  82 CALM      30.26S
LEXINGTON      CLEAR     50  48  93 CALM      30.25R
$$

TNZ008-025-027-028-033-062-065-066-230900-
NORTH MIDDLE TENNESSEE

CITY           SKY/WX    TMP DP  RH WIND       PRES   REMARKS
NASHVILLE      PTCLDY    52  50  93 S3        30.28S
CLARKSVILLE    MOCLDY    56  52  86 NE3       30.27R
COOKEVILLE     CLEAR     45  45 100 CALM      30.28R
CROSSVILLE     CLEAR     50  46  86 CALM      30.31R
$$

TNZ061-075-076-078-094-096-097-230900-
SOUTH MIDDLE TENNESSEE

CITY           SKY/WX    TMP DP  RH WIND       PRES   REMARKS
FAYETTEVILLE   CLEAR    N/A N/A N/A MISG      30.27S
TULLAHOMA      CLEAR     45  41  87 CALM      30.29R
WINCHESTER     CLEAR     46  46 100 CALM      30.28S
MCMINNVILLE    CLEAR     46  46 100 CALM      30.29R
COLUMBIA       CLEAR     46  46 100 CALM      30.26S
SHELBYVILLE    CLEAR     48  46  93 CALM      30.29S
$$

TNZ017-018-042-046-047-230900-
NORTHEAST TENNESSEE

CITY           SKY/WX    TMP DP  RH WIND       PRES   REMARKS
TRI CITIES     PTCLDY    46  44  93 NE3       30.34R
ELIZABETHTON   SUNNY     45  41  87 NE5       30.35R
$$

TNZ012-013-036-069-073-074-230900-
CENTRAL EAST TENNESSEE

CITY           SKY/WX    TMP DP  RH WIND       PRES   REMARKS
KNOXVILLE      PTCLDY    50  47  89 E5        30.29S
OAK RIDGE      PTCLDY    51  47  86 CALM      30.31S
GATLINBURG     SUNNY     46  45  93 CALM      30.31R
$$

TNZ083-085-099-230900-
SOUTHEAST TENNESSEE

CITY           SKY/WX    TMP DP  RH WIND       PRES   REMARKS
CHATTANOOGA    CLEAR     52  49  89 CALM      30.28S
$$

SKY/WX REPORTED AS FAIR MEANS FEW OR NO CLOUDS BELOW
12 THOUSAND FEET.



USA.gov is the U.S. government's official web portal to all federal, state and local government web resources and services.